User: anonymous   Login
Location: Ballingbuur
(53.0000°N, 5.7667°E)
Time: 05:45:16
(UTC+00:00)
Language:

PAYLOAD B - Orbit

View from above orbital plane
View from above orbital plane
View from above satellite
View from above satellite

Ground track
Ground track

The orbit data is extracted from the following two-line orbital elements,

1 27431U 02024B   21055.82404164 -.00000026  00000-0  11644-4 0  9996
2 27431  99.1493  63.9441 0014480 275.4748  84.4769 14.09715745966355
Epoch (UTC): 24 February 2021 19:46:37
Eccentricity: 0.0014480
inclination: 99.1493°
perigee height: 850 km
apogee height: 871 km
right ascension of ascending node: 63.9441°
argument of perigee: 275.4748°
revolutions per day: 14.09715745
mean anomaly at epoch: 84.4769°
orbit number at epoch: 96635

The dashed part of the orbit path shows where the satellite is in the earth's shadow,  

DLR